Change the Weather History Date:

Sunday, May 19, 2013

  Actual Average Record
Temperature  
Mean Temperature 68 °F -  
Max Temperature 64 °F 68 °F 89 °F (1998)
Min Temperature 64 °F 51 °F 37 °F (2014)
Cooling Degree Days 2    
Growing Degree Days 18 (Base 50)    
Moisture  
Dew Point 57 °F    
Average Humidity 72    
Maximum Humidity 87    
Minimum Humidity 66    
Precipitation  
Precipitation 0.00 in - - ()
Sea Level Pressure  
Sea Level Pressure 30.24 in    
Wind  
Wind Speed 8 mph (SE)    
Max Wind Speed 13 mph    
Max Gust Speed 18 mph    
Averages and records for this station are not official NWS values.
T = Trace of Precipitation, MM = Missing Value Source: NWS Daily Summary

Daily Weather History Graph

Daily Weather History Graph

Search for Another Location

Airport or City:

Trip Planner

Search our weather history database for the weather conditions in past years. The results will help you decide how hot, cold, wet, or windy it might be!

Date:

Astronomy

May. 19, 2013 Rise Set
Actual Time 5:38 AM EDT 8:09 PM EDT
Civil Twilight 5:07 AM EDT 8:41 PM EDT
Nautical Twilight 4:28 AM EDT 9:19 PM EDT
Astronomical Twilight 3:45 AM EDT 10:03 PM EDT
Moon 2:11 PM EDT (5/19) 2:00 AM EDT (5/19)
Length of Visible Light 15h 33m
Length of Day
14h 31m
Waxing Gibbous, 65% of the Moon is Illuminated
May 19
Waxing Gibbous
May 25
Full
May 31
Last Quarter
Jun 8
New
Jun 16
First Quarter

Hourly Weather History & Observations

Time (EDT) Temp. Dew Point Humidity Pressure Visibility Wind Dir Wind Speed Gust Speed Precip Events Conditions
12:13 AM 66.2 °F 55.4 °F 68% 30.29 in - SE 6.9 mph - N/A Rain Light Rain
12:47 AM 66.2 °F 55.4 °F 68% 30.29 in - SE 8.1 mph - N/A Rain Rain
1:00 AM 64.9 °F 55.9 °F 73% 30.28 in - SE 10.4 mph - N/A Rain Rain
1:36 AM 64.4 °F 55.4 °F 73% 30.28 in - SE 9.2 mph - N/A Rain Rain
2:00 AM 64.0 °F 55.0 °F 73% 30.27 in - SE 8.1 mph - N/A Rain Light Rain
2:07 AM 64.4 °F 55.4 °F 73% 30.27 in - ESE 9.2 mph - N/A Rain Light Rain
2:24 AM 64.4 °F 55.4 °F 73% 30.26 in - SE 10.4 mph - N/A   Overcast
2:32 AM 64.4 °F 55.4 °F 73% 30.26 in - SE 10.4 mph - N/A   Overcast
3:00 AM 64.0 °F 55.0 °F 73% 30.25 in - ESE 10.4 mph - N/A   Overcast
3:34 AM 64.4 °F 53.6 °F 68% 30.26 in - ESE 4.6 mph - N/A   Overcast
4:00 AM 66.9 °F 55.0 °F 66% 30.25 in - ESE 6.9 mph - N/A   Overcast
4:14 AM 66.2 °F 55.4 °F 68% 30.26 in - ESE 6.9 mph - N/A   Overcast
5:00 AM 66.9 °F 55.0 °F 66% 30.25 in - ESE 9.2 mph - N/A   Overcast
6:00 AM 66.0 °F 55.0 °F 68% 30.26 in - ESE 6.9 mph - N/A   Overcast
6:43 AM 66.2 °F 55.4 °F 68% 30.27 in - ESE 8.1 mph - N/A Rain Light Rain
7:00 AM 66.0 °F 55.9 °F 70% 30.27 in - SE 8.1 mph - N/A Rain Light Rain
7:21 AM 66.2 °F 55.4 °F 68% 30.28 in - SE 12.7 mph 18.4 mph N/A Rain Rain
8:00 AM 66.0 °F 57.9 °F 75% 30.27 in - ESE 9.2 mph - N/A Rain Light Rain
9:00 AM 66.0 °F 57.9 °F 75% 30.27 in - SE 9.2 mph - N/A Rain Light Rain
10:00 AM 66.0 °F 59.0 °F 78% 30.28 in - ESE 9.2 mph - N/A Rain Light Rain
11:00 AM 66.0 °F 57.9 °F 75% 30.27 in - ESE 11.5 mph - N/A   Overcast
12:00 PM 66.0 °F 59.0 °F 78% 30.27 in - ESE 10.4 mph - N/A Rain Light Rain
12:34 PM 66.2 °F 57.2 °F 73% 30.27 in - ESE 8.1 mph - N/A Rain Light Rain
1:00 PM 66.9 °F 59.0 °F 76% 30.25 in - ESE 6.9 mph - N/A Rain Light Rain
2:00 PM 66.9 °F 60.1 °F 79% 30.23 in - ESE 9.2 mph - N/A   Overcast
3:00 PM 68.0 °F 59.0 °F 73% 30.22 in - SE 6.9 mph - N/A   Overcast
4:00 PM 69.1 °F 59.0 °F 70% 30.19 in - ESE 8.1 mph - N/A   Overcast
4:14 PM 68.0 °F 59.0 °F 73% 30.19 in - ESE 6.9 mph - N/A   Overcast
5:00 PM 69.1 °F 60.1 °F 73% 30.18 in - ESE 5.8 mph - N/A   Overcast
6:00 PM 70.0 °F 60.1 °F 71% 30.17 in - ESE 5.8 mph - N/A   Overcast
7:00 PM 71.1 °F 61.0 °F 70% 30.17 in - ESE 4.6 mph - N/A   Overcast
8:00 PM 69.1 °F 60.1 °F 73% 30.17 in - East 4.6 mph - N/A   Overcast
9:00 PM 71.1 °F 60.1 °F 68% 30.17 in - ESE 5.8 mph - N/A   Overcast
10:00 PM 71.1 °F 60.1 °F 68% 30.17 in - South 4.6 mph - N/A   Overcast
11:00 PM 64.0 °F 60.1 °F 87% 30.17 in - Calm Calm - N/A   Overcast